Weather History for Lamar, CO

Change the Weather History Date:

Thursday, December 1, 2011

  Actual Average Record
Temperature  
Mean Temperature 31 °F 34 °F  
Max Temperature 40 °F 49 °F 75 °F (1998)
Min Temperature 21 °F 18 °F 3 °F (1985)
Degree Days  
Heating Degree Days 34 32  
Month to date heating degree days 34 32  
Since 1 July heating degree days 1139 1248  
Cooling Degree Days 0 0  
Month to date cooling degree days 0 0  
Year to date cooling degree days 1533 1121  
Moisture  
Dew Point 23 °F    
Average Humidity 66    
Maximum Humidity 78    
Minimum Humidity 54    
Precipitation  
Precipitation 0.00 in 0.02 in 0.25 in (1936)
Month to date precipitation 0.00 0.02  
Year to date precipitation 14.82  
Snow  
Snow 0.00 in - - ()
Month to date snowfall 0.0  
Snow Depth 0.00 in    
Sea Level Pressure  
Sea Level Pressure 30.34 in    
Wind  
Wind Speed 16 mph (North)    
Max Wind Speed 28 mph    
Max Gust Speed 35 mph    
Visibility 10 miles    
Events      
T = Trace of Precipitation, MM = Missing Value Source: NWS Daily Summary

Daily Weather History Graph

Daily Weather History Graph

Search for Another Location

Airport:

Trip Planner

Search our weather history database for the weather conditions in past years. The results will help you decide how hot, cold, wet, or windy it might be!

Date:

Astronomy

Dec. 01, 2011 Rise Set
Actual Time 6:47 AM MST 4:31 PM MST
Civil Twilight 6:18 AM MST 5:00 PM MST
Nautical Twilight 5:46 AM MST 5:33 PM MST
Astronomical Twilight 5:14 AM MST 6:04 PM MST
Moon 11:38 AM MST (12/1) 11:27 PM MST (12/1)
Length of Visible Light 10h 41m
Length of Day
9h 43m
Waxing Crescent, 44% of the Moon is Illuminated
Dec 1
Waxing Crescent
Dec 2
First Quarter
Dec 10
Full
Dec 17
Last Quarter
Dec 24
New

Hourly Weather History & Observations

Time (MST) Temp. Windchill Dew Point Humidity Pressure Visibility Wind Dir Wind Speed Gust Speed Precip Events Conditions
12:53 AM 37.9 °F 28.5 °F 26.1 °F 62% 29.90 in 10.0 mi North 17.3 mph 24.2 mph N/A   Clear
1:53 AM 36.0 °F 28.5 °F 26.1 °F 67% 29.97 in 10.0 mi North 10.4 mph 20.7 mph N/A   Clear
2:53 AM 34.0 °F 23.8 °F 26.1 °F 73% 30.01 in 10.0 mi North 16.1 mph 25.3 mph N/A   Clear
3:53 AM 34.0 °F 22.7 °F 26.1 °F 73% 30.02 in 10.0 mi North 19.6 mph 27.6 mph N/A   Clear
4:53 AM 34.0 °F 23.4 °F 26.1 °F 73% 30.12 in 10.0 mi North 17.3 mph - N/A   Clear
5:53 AM 32.0 °F 22.1 °F 25.0 °F 75% 30.20 in 10.0 mi North 13.8 mph - N/A   Clear
7:20 AM 33.8 °F 23.5 °F 26.6 °F 75% 30.25 in 10.0 mi NNE 16.1 mph 21.9 mph N/A   Mostly Cloudy
7:53 AM 35.1 °F 25.9 °F 27.0 °F 72% 30.27 in 10.0 mi NNE 13.8 mph 21.9 mph N/A   Overcast
8:53 AM 35.1 °F 22.7 °F 28.9 °F 78% 30.33 in 10.0 mi North 25.3 mph 31.1 mph N/A   Overcast
9:53 AM 35.1 °F 22.7 °F 28.0 °F 76% 30.38 in 10.0 mi NNE 25.3 mph 32.2 mph N/A   Overcast
10:29 AM 33.8 °F 21.6 °F 26.6 °F 75% 30.37 in 10.0 mi NNE 23.0 mph 28.8 mph N/A   Unknown
10:53 AM 34.0 °F 21.5 °F 26.1 °F 73% 30.40 in 10.0 mi NNE 24.2 mph 33.4 mph N/A   Unknown
11:18 AM 33.8 °F 21.9 °F 26.6 °F 75% 30.38 in 10.0 mi North 21.9 mph 32.2 mph N/A   Overcast
12:53 PM 32.0 °F 19.5 °F 23.0 °F 69% 30.43 in 10.0 mi NNE 21.9 mph 32.2 mph N/A   Overcast
3:06 PM 30.2 °F 17.4 °F 21.2 °F 69% 30.43 in 10.0 mi North 20.7 mph - N/A   Overcast
3:13 PM 30.2 °F 18.1 °F 21.2 °F 69% 30.43 in 10.0 mi North 18.4 mph 25.3 mph N/A   Overcast
3:53 PM 30.0 °F 18.3 °F 21.0 °F 69% 30.49 in 10.0 mi North 17.3 mph - N/A   Overcast
4:22 PM 30.2 °F 19.8 °F 19.4 °F 64% 30.44 in 10.0 mi NNE 13.8 mph 23.0 mph N/A   Overcast
4:53 PM 28.9 °F 17.3 °F 19.0 °F 67% 30.51 in 10.0 mi NNE 16.1 mph - N/A   Overcast
5:53 PM 28.0 °F 17.5 °F 18.0 °F 66% 30.55 in 10.0 mi NNE 12.7 mph - N/A   Overcast
6:53 PM 28.0 °F 16.5 °F 18.0 °F 66% 30.56 in 10.0 mi North 15.0 mph 18.4 mph N/A   Overcast
8:53 PM 27.0 °F 19.5 °F 17.1 °F 66% 30.55 in - North 6.9 mph - N/A   Unknown
9:53 PM - - - N/A% 30.55 in - North 5.8 mph - N/A   Unknown
10:53 PM - - - N/A% 30.47 in - North - - N/A   Unknown
11:53 PM 21.9 °F - 16.0 °F 78% 30.52 in 10.0 mi Calm Calm - N/A   Clear